IFA6251 KJFK-KBGR

Flight info

Callsign IFA6251
Flight time 0h 55m
Altitude 17000
Route EEGOR T315 HFD/N0477F390 CLOWW
Aircraft GL6T/M-SBDE1E2E3FGHIJ5RWXYZ/LB1D1

Departure

Time 2026-05-07 23:18
Airport John F. Kennedy International Airport (KJFK)

Arrival

Time 2026-05-08 00:14
Airport Bangor International Airport (KBGR)
Time Latitude Longitude Altitude Speed Heading
2026-05-07 22:55 40.65033 -73.81254 14 ft 0 kts 328°
2026-05-07 23:10 40.65018 -73.81241 16 ft 3 kts 331°
2026-05-07 23:10 40.64997 -73.81228 14 ft 3 kts 334°
2026-05-07 23:10 40.64977 -73.81215 16 ft 3 kts 332°
2026-05-07 23:11 40.64960 -73.81199 14 ft 3 kts 285°
2026-05-07 23:11 40.64958 -73.81194 14 ft 0 kts 211°
2026-05-07 23:13 40.64945 -73.81205 15 ft 8 kts 213°
2026-05-07 23:13 40.64875 -73.81158 15 ft 18 kts 121°
2026-05-07 23:14 40.64783 -73.80947 14 ft 35 kts 118°
2026-05-07 23:14 40.64656 -73.80672 14 ft 35 kts 120°
2026-05-07 23:14 40.64535 -73.80401 14 ft 34 kts 118°
2026-05-07 23:14 40.64415 -73.80136 14 ft 33 kts 121°
2026-05-07 23:15 40.64287 -73.79885 15 ft 33 kts 137°
2026-05-07 23:15 40.64163 -73.79694 14 ft 21 kts 118°
2026-05-07 23:15 40.64053 -73.79583 18 ft 21 kts 157°
2026-05-07 23:15 40.63957 -73.79450 15 ft 21 kts 120°
2026-05-07 23:16 40.63907 -73.79337 15 ft 23 kts 122°
2026-05-07 23:16 40.63814 -73.79133 15 ft 29 kts 121°
2026-05-07 23:16 40.63700 -73.78884 15 ft 34 kts 119°
2026-05-07 23:16 40.63573 -73.78602 16 ft 35 kts 118°
2026-05-07 23:17 40.63462 -73.78359 16 ft 28 kts 120°
2026-05-07 23:17 40.63382 -73.78181 15 ft 20 kts 121°
2026-05-07 23:17 40.63324 -73.78009 15 ft 18 kts 118°
2026-05-07 23:17 40.63220 -73.78023 15 ft 16 kts 223°
2026-05-07 23:18 40.63271 -73.78216 17 ft 39 kts 301°
2026-05-07 23:18 40.63561 -73.78861 19 ft 124 kts 301°
2026-05-07 23:18 40.64096 -73.80073 169 ft 189 kts 302°
2026-05-07 23:18 40.64849 -73.81865 683 ft 250 kts 296°
2026-05-07 23:19 40.65168 -73.83908 1258 ft 213 kts 264°
2026-05-07 23:19 40.64641 -73.85639 1529 ft 204 kts 234°
2026-05-07 23:19 40.63571 -73.86884 1542 ft 209 kts 212°
2026-05-07 23:19 40.62268 -73.87517 2058 ft 195 kts 202°
2026-05-07 23:20 40.60965 -73.88140 2690 ft 203 kts 203°
2026-05-07 23:20 40.59537 -73.88367 3292 ft 214 kts 183°
2026-05-07 23:20 40.58035 -73.88001 3924 ft 235 kts 166°
2026-05-07 23:20 40.56464 -73.87095 4915 ft 251 kts 160°
2026-05-07 23:21 40.54720 -73.86090 5256 ft 286 kts 161°
2026-05-07 23:21 40.52839 -73.85396 5245 ft 279 kts 173°
2026-05-07 23:21 40.51009 -73.84459 5214 ft 290 kts 150°
2026-05-07 23:21 40.49639 -73.82484 5206 ft 298 kts 121°
2026-05-07 23:22 40.49079 -73.79873 5220 ft 299 kts 94°
2026-05-07 23:22 40.49437 -73.77234 5292 ft 292 kts 65°
2026-05-07 23:22 40.50620 -73.75228 5807 ft 274 kts 33°
2026-05-07 23:22 40.52366 -73.74165 6570 ft 273 kts 13°
2026-05-07 23:23 40.54155 -73.73329 7608 ft 285 kts 17°
2026-05-07 23:23 40.55912 -73.71944 8355 ft 295 kts 32°
2026-05-07 23:23 40.57488 -73.70211 9129 ft 292 kts 36°
2026-05-07 23:23 40.59078 -73.68467 9932 ft 306 kts 32°
2026-05-07 23:24 40.60896 -73.66751 10735 ft 336 kts 29°
2026-05-07 23:24 40.62882 -73.64908 11737 ft 361 kts 31°
2026-05-07 23:24 40.64916 -73.62876 12556 ft 373 kts 33°
2026-05-07 23:24 40.67002 -73.60785 12969 ft 379 kts 32°
2026-05-07 23:25 40.69133 -73.58726 13266 ft 375 kts 31°
2026-05-07 23:25 40.71245 -73.56689 14016 ft 384 kts 31°
2026-05-07 23:25 40.73405 -73.54567 14742 ft 385 kts 32°
2026-05-07 23:25 40.75560 -73.52437 15472 ft 392 kts 32°
2026-05-07 23:26 40.77741 -73.50313 16213 ft 396 kts 31°
2026-05-07 23:26 40.79960 -73.48142 16973 ft 400 kts 32°
2026-05-07 23:26 40.82219 -73.45919 17771 ft 408 kts 32°
2026-05-07 23:26 40.84498 -73.43676 18513 ft 411 kts 31°
2026-05-07 23:27 40.89180 -73.39075 19747 ft 423 kts 31°
2026-05-07 23:27 40.91546 -73.36740 20368 ft 428 kts 30°
2026-05-07 23:27 40.93962 -73.34362 20997 ft 434 kts 30°
2026-05-07 23:28 40.96388 -73.31967 21631 ft 436 kts 30°
2026-05-07 23:28 40.98835 -73.29547 22283 ft 443 kts 29°
2026-05-07 23:28 41.01323 -73.27091 22967 ft 448 kts 29°
2026-05-07 23:28 41.03828 -73.24608 23610 ft 452 kts 28°
2026-05-07 23:29 41.06365 -73.22094 24181 ft 458 kts 28°
2026-05-07 23:29 41.08935 -73.19548 24782 ft 462 kts 28°
2026-05-07 23:29 41.11518 -73.16981 25377 ft 466 kts 29°
2026-05-07 23:29 41.14121 -73.14392 25986 ft 470 kts 28°
2026-05-07 23:30 41.16722 -73.11701 26606 ft 480 kts 33°
2026-05-07 23:30 41.19205 -73.08693 27258 ft 486 kts 35°
2026-05-07 23:30 41.21734 -73.05674 27909 ft 491 kts 34°
2026-05-07 23:30 41.24316 -73.02659 28580 ft 497 kts 34°
2026-05-07 23:31 41.26905 -72.99577 29268 ft 503 kts 35°
2026-05-07 23:31 41.29506 -72.96424 29970 ft 509 kts 35°
2026-05-07 23:31 41.32147 -72.93256 30572 ft 514 kts 34°
2026-05-07 23:31 41.34793 -72.90117 31176 ft 517 kts 34°
2026-05-07 23:32 41.37485 -72.86894 31800 ft 522 kts 34°
2026-05-07 23:32 41.40191 -72.83626 32454 ft 528 kts 34°
2026-05-07 23:32 41.42932 -72.80329 33123 ft 533 kts 34°
2026-05-07 23:32 41.45700 -72.77010 33800 ft 537 kts 34°
2026-05-07 23:33 41.48487 -72.73655 34387 ft 543 kts 34°
2026-05-07 23:33 41.51316 -72.70237 34995 ft 551 kts 35°
2026-05-07 23:33 41.54171 -72.66786 35598 ft 556 kts 35°
2026-05-07 23:33 41.57054 -72.63301 36218 ft 561 kts 35°
2026-05-07 23:34 41.59929 -72.59826 36837 ft 567 kts 35°
2026-05-07 23:34 41.62991 -72.56518 37493 ft 565 kts 28°
2026-05-07 23:34 41.66266 -72.53658 38168 ft 559 kts 21°
2026-05-07 23:34 41.69682 -72.51262 38772 ft 549 kts 16°
2026-05-07 23:35 41.76704 -72.46887 38854 ft 560 kts 16°
2026-05-07 23:35 41.83761 -72.42440 38852 ft 559 kts 16°
2026-05-07 23:36 41.90815 -72.38030 38855 ft 559 kts 17°
2026-05-07 23:36 41.97839 -72.33586 38845 ft 557 kts 17°
2026-05-07 23:37 42.04868 -72.29164 38846 ft 557 kts 17°
2026-05-07 23:37 42.11884 -72.24710 38841 ft 557 kts 17°
2026-05-07 23:38 42.18853 -72.20297 38851 ft 556 kts 17°
2026-05-07 23:38 42.25791 -72.15876 38839 ft 556 kts 17°
2026-05-07 23:39 42.32796 -72.11416 38853 ft 556 kts 17°
2026-05-07 23:39 42.39795 -72.06936 38846 ft 557 kts 18°
2026-05-07 23:40 42.46798 -72.02450 38848 ft 556 kts 18°
2026-05-07 23:40 42.53798 -71.97954 38834 ft 557 kts 18°
2026-05-07 23:41 42.60804 -71.93442 38841 ft 557 kts 18°
2026-05-07 23:41 42.67809 -71.88913 38836 ft 558 kts 19°
2026-05-07 23:42 42.74456 -71.83219 38848 ft 571 kts 32°
2026-05-07 23:42 42.80333 -71.75809 38843 ft 577 kts 40°
2026-05-07 23:43 42.86060 -71.68141 38834 ft 577 kts 40°
2026-05-07 23:43 42.91728 -71.60456 38803 ft 578 kts 40°
2026-05-07 23:44 42.97442 -71.52746 38808 ft 578 kts 40°
2026-05-07 23:44 43.03154 -71.44982 38804 ft 578 kts 41°
2026-05-07 23:45 43.08853 -71.37233 38818 ft 577 kts 41°
2026-05-07 23:45 43.14536 -71.29472 38806 ft 577 kts 41°
2026-05-07 23:46 43.20222 -71.21696 38813 ft 577 kts 41°
2026-05-07 23:46 43.25900 -71.13901 38786 ft 578 kts 41°
2026-05-07 23:47 43.31542 -71.06138 38792 ft 577 kts 41°
2026-05-07 23:47 43.37217 -70.98306 38782 ft 577 kts 41°
2026-05-07 23:48 43.42913 -70.90427 38784 ft 584 kts 42°
2026-05-07 23:48 43.48650 -70.82461 38795 ft 586 kts 42°
2026-05-07 23:49 43.54416 -70.74442 38393 ft 592 kts 42°
2026-05-07 23:49 43.57307 -70.70408 38051 ft 591 kts 43°
2026-05-07 23:49 43.60192 -70.66372 37570 ft 592 kts 43°
2026-05-07 23:50 43.63088 -70.62323 37037 ft 593 kts 43°
2026-05-07 23:50 43.65985 -70.58267 36533 ft 593 kts 43°
2026-05-07 23:50 43.68878 -70.54207 36035 ft 592 kts 43°
2026-05-07 23:50 43.71730 -70.50197 35555 ft 591 kts 43°
2026-05-07 23:51 43.74651 -70.46088 35074 ft 591 kts 43°
2026-05-07 23:51 43.77525 -70.42040 34613 ft 590 kts 43°
2026-05-07 23:51 43.80293 -70.37833 34141 ft 591 kts 50°
2026-05-07 23:51 43.82716 -70.33236 33674 ft 591 kts 57°
2026-05-07 23:52 43.84944 -70.28453 33144 ft 591 kts 57°
2026-05-07 23:52 43.87157 -70.23751 32631 ft 591 kts 57°
2026-05-07 23:52 43.89425 -70.18916 32110 ft 590 kts 57°
2026-05-07 23:52 43.91641 -70.14119 31620 ft 590 kts 58°
2026-05-07 23:53 43.93851 -70.09326 31128 ft 590 kts 57°
2026-05-07 23:53 43.96050 -70.04608 30652 ft 589 kts 57°
2026-05-07 23:53 43.98280 -69.99821 30173 ft 589 kts 57°
2026-05-07 23:53 44.00484 -69.95030 29673 ft 588 kts 58°
2026-05-07 23:54 44.02684 -69.90236 29111 ft 589 kts 57°
2026-05-07 23:54 44.04901 -69.85437 28544 ft 592 kts 57°
2026-05-07 23:54 44.07128 -69.80613 28001 ft 592 kts 57°
2026-05-07 23:54 44.09338 -69.75788 27477 ft 593 kts 57°
2026-05-07 23:55 44.11557 -69.70932 26953 ft 595 kts 57°
2026-05-07 23:55 44.13787 -69.66063 26185 ft 599 kts 57°
2026-05-07 23:55 44.16029 -69.61166 25450 ft 600 kts 57°
2026-05-07 23:55 44.18264 -69.56259 24727 ft 600 kts 57°
2026-05-07 23:56 44.20499 -69.51337 24028 ft 602 kts 57°
2026-05-07 23:56 44.22743 -69.46408 23336 ft 594 kts 57°
2026-05-07 23:56 44.24844 -69.41783 22060 ft 539 kts 57°
2026-05-07 23:56 44.26766 -69.37524 20905 ft 517 kts 57°
2026-05-07 23:57 44.28675 -69.33301 19985 ft 513 kts 57°
2026-05-07 23:57 44.30523 -69.29222 19062 ft 475 kts 57°
2026-05-07 23:57 44.32226 -69.25442 18232 ft 456 kts 57°
2026-05-07 23:57 44.33958 -69.21598 17308 ft 463 kts 57°
2026-05-07 23:58 44.35646 -69.17846 16461 ft 460 kts 56°
2026-05-07 23:58 44.37339 -69.14073 15606 ft 456 kts 56°
2026-05-07 23:58 44.38999 -69.10371 14751 ft 433 kts 56°
2026-05-07 23:58 44.40571 -69.06859 13989 ft 428 kts 56°
2026-05-07 23:59 44.42159 -69.03325 13150 ft 428 kts 56°
2026-05-07 23:59 44.43729 -68.99813 12363 ft 423 kts 56°
2026-05-07 23:59 44.45276 -68.96333 11584 ft 418 kts 56°
2026-05-07 23:59 44.46802 -68.92913 10815 ft 411 kts 56°
2026-05-08 00:00 44.48309 -68.89542 10061 ft 405 kts 56°
2026-05-08 00:00 44.49784 -68.86223 9285 ft 398 kts 56°
2026-05-08 00:00 44.51180 -68.83061 8564 ft 357 kts 56°
2026-05-08 00:00 44.52008 -68.81189 8141 ft 328 kts 56°
2026-05-08 00:01 44.53153 -68.78622 7577 ft 296 kts 56°
2026-05-08 00:01 44.54217 -68.76229 7058 ft 284 kts 56°
2026-05-08 00:01 44.55247 -68.73903 6538 ft 278 kts 56°
2026-05-08 00:01 44.56274 -68.71586 6051 ft 287 kts 56°
2026-05-08 00:02 44.57320 -68.69223 5475 ft 278 kts 56°
2026-05-08 00:02 44.58308 -68.66971 4967 ft 260 kts 55°
2026-05-08 00:02 44.59234 -68.64874 4506 ft 249 kts 54°
2026-05-08 00:02 44.60167 -68.62775 4031 ft 259 kts 54°
2026-05-08 00:03 44.61095 -68.60670 3530 ft 247 kts 54°
2026-05-08 00:03 44.61986 -68.58639 3102 ft 246 kts 54°
2026-05-08 00:03 44.62896 -68.56575 3006 ft 245 kts 54°
2026-05-08 00:03 44.63786 -68.54531 3008 ft 246 kts 56°
2026-05-08 00:04 44.64425 -68.52288 2996 ft 251 kts 73°
2026-05-08 00:04 44.64634 -68.49855 2991 ft 252 kts 88°
2026-05-08 00:04 44.64409 -68.47415 2998 ft 253 kts 103°
2026-05-08 00:04 44.63732 -68.45053 2998 ft 285 kts 119°
2026-05-08 00:05 44.62519 -68.42851 3016 ft 283 kts 137°
2026-05-08 00:05 44.60880 -68.41487 2993 ft 275 kts 166°
2026-05-08 00:05 44.59019 -68.41347 2997 ft 266 kts 195°
2026-05-08 00:05 44.57402 -68.42432 2999 ft 256 kts 224°
2026-05-08 00:06 44.56411 -68.44424 3003 ft 248 kts 253°
2026-05-08 00:06 44.56283 -68.46773 2998 ft 243 kts 281°
2026-05-08 00:06 44.56907 -68.48951 3009 ft 241 kts 302°
2026-05-08 00:06 44.58075 -68.50643 3009 ft 243 kts 319°
2026-05-08 00:07 44.59388 -68.52144 3017 ft 244 kts 317°
2026-05-08 00:07 44.60610 -68.53791 3013 ft 244 kts 313°
2026-05-08 00:07 44.61793 -68.55498 3009 ft 243 kts 313°
2026-05-08 00:07 44.62978 -68.57202 3000 ft 243 kts 313°
2026-05-08 00:08 44.64154 -68.58893 3016 ft 242 kts 313°
2026-05-08 00:08 44.65328 -68.60578 3028 ft 241 kts 313°
2026-05-08 00:08 44.66506 -68.62267 3025 ft 243 kts 313°
2026-05-08 00:08 44.67658 -68.63925 3028 ft 229 kts 313°
2026-05-08 00:09 44.68724 -68.65470 3012 ft 212 kts 313°
2026-05-08 00:09 44.69698 -68.66875 3024 ft 190 kts 313°
2026-05-08 00:09 44.70571 -68.68127 2802 ft 168 kts 312°
2026-05-08 00:09 44.71360 -68.69268 2581 ft 156 kts 312°
2026-05-08 00:10 44.72078 -68.70301 2377 ft 139 kts 313°
2026-05-08 00:10 44.72682 -68.71171 2214 ft 116 kts 312°
2026-05-08 00:10 44.73224 -68.71955 2062 ft 109 kts 312°
2026-05-08 00:10 44.73744 -68.72709 1928 ft 110 kts 311°
2026-05-08 00:11 44.74282 -68.73486 1776 ft 110 kts 312°
2026-05-08 00:11 44.74814 -68.74246 1633 ft 108 kts 312°
2026-05-08 00:11 44.75334 -68.74999 1475 ft 109 kts 311°
2026-05-08 00:11 44.75872 -68.75773 1328 ft 111 kts 311°
2026-05-08 00:12 44.76419 -68.76567 1162 ft 114 kts 311°
2026-05-08 00:12 44.76974 -68.77369 999 ft 115 kts 312°
2026-05-08 00:12 44.77533 -68.78183 834 ft 115 kts 314°
2026-05-08 00:12 44.78099 -68.78959 655 ft 109 kts 315°
2026-05-08 00:13 44.78596 -68.79736 522 ft 105 kts 314°
2026-05-08 00:13 44.79117 -68.80463 391 ft 106 kts 314°
2026-05-08 00:13 44.79651 -68.81240 231 ft 112 kts 313°
2026-05-08 00:13 44.80179 -68.82003 181 ft 105 kts 313°
2026-05-08 00:14 44.80638 -68.82651 193 ft 73 kts 315°
2026-05-08 00:14 44.80953 -68.83108 188 ft 60 kts 315°
2026-05-08 00:14 44.81149 -68.83342 189 ft 12 kts 41°
2026-05-08 00:14 44.81208 -68.83249 192 ft 15 kts 46°
2026-05-08 00:15 44.81297 -68.83128 190 ft 21 kts 45°
2026-05-08 00:15 44.81263 -68.82959 196 ft 24 kts 135°
2026-05-08 00:15 44.81141 -68.82785 191 ft 26 kts 134°
2026-05-08 00:15 44.81012 -68.82600 185 ft 27 kts 134°
2026-05-08 00:16 44.80878 -68.82406 184 ft 29 kts 134°
2026-05-08 00:16 44.80733 -68.82196 182 ft 31 kts 134°
2026-05-08 00:16 44.80575 -68.81968 180 ft 33 kts 134°
2026-05-08 00:16 44.80419 -68.81739 178 ft 32 kts 134°
2026-05-08 00:17 44.80324 -68.81564 176 ft 13 kts 54°
2026-05-08 00:17 44.80337 -68.81456 176 ft 14 kts 105°
2026-05-08 00:17 44.80353 -68.81410 176 ft 3 kts 32°
2026-05-08 00:17 44.80365 -68.81356 175 ft 6 kts 108°
2026-05-08 00:18 44.80357 -68.81325 175 ft 0 kts 109°